カタログに戻る

OPS 4682 DEB

運用中PO
NORAD 55116·DEBRIS·🇺🇸 United States

打ち上げ Apr 3, 1965 から Vandenberg Space Force Base

Loading…

次のパス (今後24時間)

TLE

最新Source: Space-Track

元期: Sep 14, 2026, 06:22 UTC

1 55116U 65027HF  26257.26576513 -.00000661  00000-0 -22482-2 0  9990
2 55116  90.2501   9.1988 0033325 110.5780 249.8922 12.99015567525643

AllMySatでOPS 4682 DEBをリアルタイム追跡

Download on the App Store